GW5909 Weather Reports


Display with metric or nautical units.
time (UTC)temp
F
wind
direction
speed
MPH
gust
MPH
rain 1hr
in
rain 24hr
in
rain mn
in
humidity
%
barometer
mb
20260507230404 64 339 0.0 3.0 0.00 0.43 0.00 40 1012.5
20260507225905 64 341 3.0 9.0 0.00 0.43 0.00 40 1012.3
20260507224404 64 280 0.0 3.0 0.00 0.43 0.00 40 1012.4
20260507223904 64 323 1.0 3.0 0.00 0.43 0.00 39 1012.3
20260507222903 64 292 2.0 7.0 0.00 0.43 0.00 39 1012.3
20260507222404 64 338 5.0 12.0 0.00 0.43 0.00 39 1012.4
20260507221904 65 282 2.0 8.0 0.00 0.43 0.00 40 1012.4
20260507221404 65 302 3.0 6.0 0.00 0.43 0.00 40 1012.1
20260507220404 65 307 2.0 8.0 0.00 0.43 0.00 40 1012.3
20260507215904 65 329 1.0 6.0 0.00 0.43 0.00 40 1012.3
20260507215404 65 278 1.0 7.0 0.00 0.43 0.00 40 1012.2
20260507214904 65 303 2.0 9.0 0.00 0.43 0.00 40 1012.3
20260507214404 64 291 2.0 7.0 0.00 0.43 0.00 40 1012.2
20260507213904 64 295 3.0 10.0 0.00 0.43 0.00 39 1012.3
20260507211904 64 293 0.0 9.0 0.00 0.43 0.00 39 1011.9
20260507211405 64 336 0.0 9.0 0.00 0.43 0.00 39 1012.1
20260507210904 64 297 5.0 9.0 0.00 0.43 0.00 40 1012.1
20260507210404 64 338 2.0 8.0 0.00 0.43 0.00 39 1012.0
20260507205904 64 299 4.0 10.0 0.00 0.43 0.00 39 1012.1
20260507205404 64 311 3.0 9.0 0.00 0.43 0.00 39 1012.3
20260507204904 65 338 7.0 13.0 0.00 0.43 0.00 39 1012.0
20260507204404 65 292 1.0 5.0 0.00 0.43 0.00 40 1012.4
20260507203404 64 338 2.0 10.0 0.00 0.43 0.00 40 1012.0
20260507202904 64 321 4.0 12.0 0.00 0.43 0.00 40 1012.0
20260507202404 64 302 6.0 13.0 0.00 0.43 0.00 40 1012.2
20260507201904 64 80 1.0 7.0 0.00 0.43 0.00 40 1012.1
20260507201404 64 275 5.0 13.0 0.00 0.43 0.00 40 1012.2
20260507200904 64 330 3.0 13.0 0.00 0.43 0.00 41 1012.0
20260507200404 65 264 3.0 13.0 0.00 0.43 0.00 41 1012.3
20260507195904 65 313 1.0 8.0 0.00 0.43 0.00 41 1012.2
20260507195404 64 299 3.0 12.0 0.00 0.43 0.00 41 1012.1
20260507194904 65 322 3.0 10.0 0.00 0.43 0.00 41 1012.1
20260507194404 65 295 4.0 10.0 0.00 0.43 0.00 42 1012.3
20260507185904 65 312 2.0 8.0 0.00 0.43 0.00 42 1012.4
20260507185404 64 306 3.0 12.0 0.00 0.43 0.00 43 1012.4
20260507184905 64 313 3.0 13.0 0.00 0.43 0.00 43 1012.4
20260507184404 64 9 0.0 6.0 0.00 0.43 0.00 43 1012.7
20260507183903 64 312 2.0 8.0 0.00 0.43 0.00 43 1012.7
20260507183404 64 347 1.0 6.0 0.00 0.43 0.00 43 1012.6
20260507182903 64 352 1.0 6.0 0.00 0.43 0.00 44 1012.6
20260507182404 63 276 2.0 10.0 0.00 0.43 0.00 44 1012.6
20260507181904 63 342 5.0 13.0 0.00 0.43 0.00 44 1013.0
20260507180904 63 313 6.0 12.0 0.00 0.43 0.00 44 1012.9
20260507180404 63 332 5.0 9.0 0.00 0.43 0.00 45 1012.9
20260507175403 63 315 2.0 9.0 0.00 0.43 0.00 45 1012.8
20260507174903 63 321 3.0 9.0 0.00 0.43 0.00 46 1012.9
20260507174404 63 308 5.0 10.0 0.00 0.43 0.00 48 1013.0
20260507173904 62 140 1.0 8.0 0.00 0.43 0.00 47 1013.0
20260507172904 62 307 3.0 12.0 0.00 0.43 0.00 46 1013.3
20260507172403 62 305 6.0 14.0 0.00 0.43 0.00 47 1013.2
20260507171904 62 298 1.0 7.0 0.00 0.43 0.00 47 1013.2
20260507171404 62 284 4.0 13.0 0.00 0.43 0.00 48 1013.7
20260507170904 62 331 3.0 12.0 0.00 0.43 0.00 48 1013.6
20260507170403 62 310 3.0 7.0 0.00 0.43 0.00 48 1013.7
20260507165903 61 305 3.0 8.0 0.00 0.43 0.00 48 1014.0
20260507165404 61 281 7.0 15.0 0.00 0.43 0.00 48 1014.1
20260507164903 61 347 4.0 13.0 0.00 0.43 0.00 48 1014.2
20260507164406 61 315 5.0 10.0 0.00 0.43 0.00 48 1014.2
20260507163906 61 287 6.0 10.0 0.00 0.43 0.00 49 1014.2
20260507163406 61 324 3.0 16.0 0.00 0.43 0.00 49 1014.1
20260507162906 61 339 6.0 13.0 0.00 0.43 0.00 49 1014.1
20260507162406 62 352 2.0 6.0 0.00 0.43 0.00 50 1014.1
20260507161906 62 305 2.0 9.0 0.00 0.43 0.00 49 1014.1
20260507161406 62 316 1.0 7.0 0.00 0.43 0.00 50 1014.4
20260507160906 62 312 1.0 12.0 0.00 0.43 0.00 51 1014.2
20260507155906 62 342 2.0 12.0 0.00 0.43 0.00 50 1014.0
20260507155406 62 304 1.0 9.0 0.00 0.43 0.00 50 1014.1
20260507154405 64 293 3.0 8.0 0.00 0.43 0.00 49 1014.1
20260507153906 65 317 2.0 8.0 0.00 0.43 0.00 50 1013.9
20260507153405 65 78 1.0 7.0 0.00 0.43 0.00 52 1013.9
20260507152906 65 97 1.0 5.0 0.00 0.43 0.00 53 1013.8
20260507152406 64 327 1.0 6.0 0.00 0.43 0.00 53 1014.1
20260507151406 63 316 2.0 9.0 0.00 0.43 0.00 55 1014.0
20260507150906 62 13 2.0 8.0 0.00 0.43 0.00 56 1013.9
20260507150405 62 285 2.0 8.0 0.00 0.43 0.00 56 1014.2
20260507145906 61 315 1.0 10.0 0.00 0.43 0.00 58 1014.0
20260507145406 60 310 1.0 9.0 0.00 0.43 0.00 59 1014.2
20260507144906 59 353 0.0 8.0 0.00 0.43 0.00 59 1014.2
20260507144406 59 325 3.0 9.0 0.00 0.43 0.00 59 1014.2
20260507143906 59 321 4.0 9.0 0.00 0.43 0.00 61 1014.6
20260507143406 58 292 3.0 9.0 0.00 0.43 0.00 63 1014.2
20260507142905 58 6 3.0 10.0 0.00 0.43 0.00 64 1014.4
20260507142405 58 305 2.0 7.0 0.00 0.43 0.00 66 1014.4
20260507141906 57 328 0.0 3.0 0.00 0.43 0.00 67 1014.3
20260507140906 56 326 2.0 8.0 0.00 0.43 0.00 68 1014.5
20260507140406 56 4 0.0 6.0 0.00 0.43 0.00 68 1014.3
20260507135906 56 0 2.0 7.0 0.00 0.43 0.00 70 1014.6
20260507134906 55 9 1.0 7.0 0.00 0.43 0.00 72 1014.7
20260507134406 54 356 1.0 7.0 0.00 0.43 0.00 72 1014.6
20260507133906 54 5 2.0 7.0 0.00 0.43 0.00 73 1014.6
20260507133405 54 2 2.0 7.0 0.00 0.43 0.00 74 1014.8
20260507132906 53 314 2.0 7.0 0.00 0.43 0.00 75 1014.6
20260507132405 53 353 2.0 5.0 0.00 0.43 0.00 76 1014.9
20260507131906 52 320 0.0 6.0 0.00 0.43 0.00 76 1014.7
20260507130906 51 345 3.0 9.0 0.00 0.43 0.00 77 1014.7
20260507130405 51 340 2.0 8.0 0.00 0.43 0.00 78 1014.7
20260507125906 51 338 3.0 10.0 0.00 0.43 0.00 79 1014.9
20260507125405 51 13 2.0 7.0 0.00 0.43 0.00 79 1014.8
20260507124906 51 333 2.0 9.0 0.00 0.43 0.00 80 1014.8
20260507124405 50 23 0.0 6.0 0.00 0.43 0.00 81 1014.9
20260507123906 50 333 1.0 9.0 0.00 0.43 0.00 81 1014.8
20260507123405 49 45 0.0 7.0 0.00 0.43 0.00 82 1014.8
20260507122905 49 6 1.0 6.0 0.00 0.43 0.00 82 1014.9
20260507122406 48 15 2.0 5.0 0.00 0.43 0.00 83 1014.9
20260507121905 48 327 1.0 5.0 0.00 0.43 0.00 83 1015.3
20260507121406 47 322 2.0 8.0 0.00 0.43 0.00 84 1015.3
20260507120905 47 325 0.0 1.0 0.00 0.43 0.00 84 1015.2
20260507120405 46 309 1.0 5.0 0.00 0.43 0.00 84 1015.4
20260507115905 46 297 2.0 6.0 0.00 0.43 0.00 84 1015.6
20260507115405 46 339 1.0 7.0 0.00 0.43 0.00 84 1015.4
20260507114906 45 323 0.0 2.0 0.00 0.43 0.00 85 1015.6
20260507114406 44 328 0.0 2.0 0.00 0.43 0.00 84 1015.4
20260507113905 44 357 1.0 5.0 0.00 0.43 0.00 84 1015.5
20260507113405 43 320 0.0 1.0 0.00 0.43 0.00 84 1015.4
20260507112906 43 308 0.0 2.0 0.00 0.43 0.00 84 1015.6
20260507112406 43 307 0.0 1.0 0.00 0.43 0.00 84 1015.5
20260507111905 43 319 0.0 1.0 0.00 0.43 0.00 84 1015.3
20260507111405 43 336 0.0 0.0 0.00 0.43 0.00 84 1015.2
20260507110905 43 337 0.0 0.0 0.00 0.43 0.00 84 1015.3
20260507110405 42 339 0.0 0.0 0.00 0.43 0.00 84 1014.9
20260507105906 42 339 0.0 1.0 0.00 0.43 0.00 84 1015.0
20260507104905 42 337 0.0 1.0 0.00 0.43 0.00 83 1014.7
20260507103905 42 302 0.0 0.0 0.00 0.43 0.00 83 1014.8
20260507103405 42 300 0.0 0.0 0.00 0.43 0.00 83 1015.0
20260507102905 42 300 0.0 1.0 0.00 0.43 0.00 83 1014.6
20260507102406 42 304 0.0 1.0 0.00 0.43 0.00 83 1014.8
20260507101906 42 344 0.0 0.0 0.00 0.43 0.00 83 1014.7
20260507101405 42 345 0.0 0.0 0.00 0.43 0.00 83 1014.8
20260507100905 42 344 0.0 0.0 0.00 0.43 0.00 82 1014.5
20260507100405 42 302 0.0 0.0 0.00 0.43 0.00 82 1014.6
20260507095405 43 311 0.0 0.0 0.00 0.43 0.00 82 1014.7
20260507094905 43 331 0.0 0.0 0.00 0.43 0.00 82 1014.7
20260507094406 43 344 0.0 0.0 0.00 0.43 0.00 82 1014.7
20260507093905 43 344 0.0 0.0 0.00 0.43 0.00 82 1014.5
20260507092405 44 344 0.0 0.0 0.00 0.43 0.00 82 1014.7
20260507091905 44 344 0.0 0.0 0.00 0.43 0.00 82 1014.4
20260507091406 44 344 0.0 0.0 0.00 0.44 0.00 82 1014.5
20260507090905 44 344 0.0 0.0 0.00 0.44 0.00 81 1014.2
20260507090405 44 344 0.0 0.0 0.00 0.44 0.00 81 1014.5
20260507085905 44 344 0.0 0.0 0.00 0.44 0.00 81 1014.1
20260507085405 44 344 0.0 0.0 0.00 0.44 0.00 81 1014.4
20260507084905 44 344 0.0 0.0 0.00 0.44 0.00 81 1014.1
20260507083905 45 344 0.0 0.0 0.00 0.44 0.00 81 1014.5
20260507083405 45 344 0.0 0.0 0.00 0.44 0.00 81 1014.3
20260507082905 45 344 0.0 0.0 0.00 0.45 0.00 81 1014.2
20260507082405 45 344 0.0 0.0 0.00 0.46 0.00 81 1014.0
20260507081906 45 344 0.0 0.0 0.00 0.46 0.00 81 1014.1
20260507081405 45 344 0.0 0.0 0.00 0.46 0.00 80 1013.9
20260507080905 45 344 0.0 0.0 0.00 0.46 0.00 80 1014.1
20260507080405 45 344 0.0 0.0 0.00 0.46 0.00 80 1014.1
20260507075905 45 344 0.0 0.0 0.00 0.46 0.00 80 1013.9
20260507075405 45 344 0.0 0.0 0.00 0.46 0.00 80 1013.8
20260507074905 45 344 0.0 0.0 0.00 0.47 0.00 80 1014.0
20260507074405 45 344 0.0 0.0 0.00 0.48 0.00 80 1013.9
20260507073905 46 344 0.0 0.0 0.00 0.49 0.00 80 1014.1
20260507073404 46 344 0.0 0.0 0.00 0.50 0.00 79 1013.9
20260507072905 46 344 0.0 0.0 0.00 0.50 0.00 79 1013.8
20260507071904 46 344 0.0 0.0 0.00 0.52 0.00 79 1014.0
20260507071405 46 344 0.0 0.0 0.00 0.52 0.00 79 1014.1
20260507070904 46 344 0.0 0.0 0.00 0.53 0.00 79 1013.9
20260507070405 46 344 0.0 0.0 0.00 0.54 0.00 79 1013.9
20260507065905 46 344 0.0 0.0 0.00 0.55 0.00 79 1014.0
20260507065405 46 344 0.0 0.0 0.00 0.55 0.00 79 1014.0
20260507064405 46 344 0.0 0.0 0.00 0.56 0.00 78 1014.2
20260507063904 47 344 0.0 0.0 0.00 0.56 0.00 78 1013.9
20260507062905 47 344 0.0 0.0 0.00 0.61 0.00 78 1013.9
20260507061905 47 344 0.0 0.0 0.00 0.63 0.00 78 1014.4
20260507061405 47 344 0.0 0.0 0.00 0.63 0.00 78 1014.4
20260507060904 47 344 0.0 0.0 0.00 0.63 0.00 77 1014.3
20260507060405 47 344 0.0 0.0 0.00 0.63 0.00 77 1014.4
20260507055905 47 344 0.0 0.0 0.00 0.64 0.00 77 1014.2
20260507055405 47 344 0.0 0.0 0.00 0.64 0.00 76 1014.1
20260507054405 47 344 0.0 0.0 0.00 0.69 0.00 76 1014.1
20260507053905 47 344 0.0 0.0 0.00 0.73 0.00 76 1013.8
20260507053405 47 344 0.0 0.0 0.00 0.79 0.00 76 1014.0
20260507052905 48 344 0.0 0.0 0.00 0.84 0.00 75 1014.0
20260507052405 48 344 0.0 0.0 0.00 0.85 0.00 75 1013.8
20260507051905 48 344 0.0 0.0 0.00 0.85 0.00 75 1013.7
20260507051405 48 344 0.0 0.0 0.00 0.85 0.00 75 1014.2
20260507050905 49 344 0.0 0.0 0.00 0.85 0.00 75 1014.1
20260507050405 49 344 0.0 0.0 0.00 0.85 0.00 75 1014.0
20260507045905 49 344 0.0 0.0 0.00 0.85 0.43 75 1014.0
20260507044405 49 344 0.0 0.0 0.00 0.85 0.43 74 1014.1
20260507043904 49 344 0.0 0.0 0.00 0.85 0.43 74 1014.1
20260507043404 48 344 0.0 0.0 0.00 0.85 0.43 73 1014.2
20260507042905 48 344 0.0 0.0 0.00 0.85 0.43 73 1014.1
20260507042404 49 344 0.0 0.0 0.00 0.85 0.43 73 1014.3
20260507041905 49 344 0.0 0.0 0.00 0.86 0.43 73 1014.2
20260507041405 49 344 0.0 0.0 0.00 0.86 0.43 72 1014.1
20260507040904 49 344 0.0 0.0 0.00 0.88 0.43 72 1014.2
20260507040404 49 346 0.0 0.0 0.00 0.88 0.43 72 1014.2
20260507035905 49 346 0.0 0.0 0.00 0.55 0.43 72 1014.4
20260507035404 49 350 0.0 0.0 0.00 0.55 0.43 71 1014.2
20260507034904 49 350 0.0 0.0 0.00 0.55 0.43 71 1014.2
20260507034405 49 350 0.0 0.0 0.00 0.55 0.43 71 1014.4
20260507033405 49 350 0.0 0.0 0.00 0.56 0.43 71 1014.0
20260507032905 49 350 0.0 0.0 0.00 0.56 0.43 70 1014.0
20260507030905 50 350 0.0 0.0 0.00 0.56 0.43 69 1014.1
20260507030404 50 350 0.0 0.0 0.00 0.57 0.43 69 1014.0
20260507025905 51 350 0.0 0.0 0.00 0.58 0.43 68 1013.9
20260507024904 51 350 0.0 0.0 0.00 0.58 0.43 68 1013.7
20260507024405 51 350 0.0 0.0 0.00 0.58 0.43 67 1013.7
20260507023905 52 350 0.0 0.0 0.00 0.58 0.43 67 1013.8
20260507023405 52 350 0.0 0.0 0.00 0.58 0.43 67 1013.2
20260507022904 52 350 0.0 0.0 0.00 0.58 0.43 66 1013.4
20260507022404 53 350 0.0 0.0 0.00 0.58 0.43 66 1013.5
20260507021404 53 350 0.0 1.0 0.00 0.58 0.43 65 1013.1
20260507020904 53 347 0.0 0.0 0.00 0.58 0.43 65 1013.1
20260507020404 54 352 0.0 0.0 0.00 0.58 0.43 65 1013.2
20260507015905 54 353 0.0 0.0 0.00 0.58 0.43 65 1013.3
20260507015404 54 353 0.0 0.0 0.00 0.58 0.43 65 1012.9
20260507014904 54 352 0.0 2.0 0.00 0.58 0.43 65 1012.9
20260507014404 55 350 1.0 2.0 0.00 0.59 0.43 64 1012.6
20260507012904 55 317 0.0 1.0 0.00 0.59 0.43 65 1012.6
20260507012405 56 307 0.0 1.0 0.00 0.59 0.43 65 1012.9
20260507011904 56 343 0.0 0.0 0.00 0.59 0.43 65 1013.0
20260507011405 56 340 0.0 1.0 0.00 0.59 0.43 65 1012.9
20260507010904 56 335 0.0 2.0 0.00 0.59 0.43 65 1012.5
20260507010405 56 336 0.0 1.0 0.00 0.59 0.43 64 1012.8
20260507005905 57 337 0.0 2.0 0.00 0.59 0.43 64 1012.7
20260507005404 57 331 0.0 3.0 0.00 0.59 0.43 64 1012.6
20260507003905 58 323 1.0 3.0 0.00 0.59 0.43 64 1012.6
20260507003405 58 341 0.0 2.0 0.00 0.59 0.43 64 1012.4
20260507002904 58 337 1.0 2.0 0.00 0.59 0.43 64 1012.5
20260507002404 58 351 0.0 1.0 0.00 0.59 0.43 63 1012.2
20260507001904 58 350 0.0 0.0 0.00 0.60 0.43 63 1012.6
20260507001405 58 350 0.0 0.0 0.00 0.61 0.43 63 1012.1
20260507000904 58 350 0.0 0.0 0.00 0.62 0.43 62 1012.2
20260507000405 58 350 0.0 1.0 0.00 0.62 0.43 62 1011.8
20260506235904 59 359 0.0 0.0 0.00 0.62 0.43 62 1011.7
20260506235404 59 358 0.0 5.0 0.00 0.62 0.43 61 1011.6
20260506234905 59 318 1.0 5.0 0.00 0.62 0.43 61 1011.6
20260506234404 59 334 0.0 2.0 0.00 0.62 0.43 61 1011.6
20260506233904 59 308 0.0 1.0 0.00 0.62 0.43 61 1012.0
20260506233404 59 293 1.0 5.0 0.00 0.62 0.43 60 1011.6
20260506232905 59 341 0.0 1.0 0.00 0.62 0.43 60 1011.8
20260506232404 60 338 0.0 1.0 0.00 0.63 0.43 60 1011.6
20260506231904 60 321 0.0 1.0 0.00 0.63 0.43 59 1011.6
20260506231404 60 333 0.0 2.0 0.00 0.63 0.43 59 1011.4
20260506230904 60 334 0.0 2.0 0.00 0.63 0.43 59 1011.7